Location: Carbonear
(47.7333°N, 53.2500°W)
Time: 10:50:38
(UTC+00:00)

ISS - Visible Passes

Search period start: 09 December 2023 00:00
Search period end: 19 December 2023 00:00
Orbit: 415 x 417 km, 51.6° (Epoch: 09 December)

Date Brightness Start Highest point End Pass type
(mag) Time Alt. Az. Time Alt. Az. Time Alt. Az.
09 Dec 0.1 20:20:42 10° WSW 20:21:32 11° SW 20:22:20 10° SSW visible
15 Dec -1.1 10:35:49 10° SSW 10:38:34 24° SE 10:41:21 10° E visible
16 Dec -0.7 09:47:41 10° S 09:49:46 16° SE 09:51:50 10° E visible
17 Dec -2.9 10:33:45 10° SW 10:37:01 52° SSE 10:40:17 10° ENE visible
18 Dec -2.1 09:44:57 10° SSW 09:48:00 34° SE 09:51:04 10° ENE visible
